TimeEDT,TemperatureF,Dew PointF,Humidity,Sea Level PressureIn,VisibilityMPH,Wind Direction,Wind SpeedMPH,Gust SpeedMPH,PrecipitationIn,Events,Conditions,WindDirDegrees,DateUTC
12:51 AM,46.9,37.9,71,29.89,10.0,SSE,5.8,-,N/A,,Mostly Cloudy,160,2012-10-17 04:51:00
1:51 AM,46.0,37.9,73,29.90,10.0,SSE,6.9,-,N/A,,Mostly Cloudy,160,2012-10-17 05:51:00
2:51 AM,46.0,37.9,73,29.90,10.0,SSE,8.1,-,N/A,,Mostly Cloudy,160,2012-10-17 06:51:00
3:51 AM,45.0,37.9,76,29.88,10.0,SSE,8.1,-,N/A,,Mostly Cloudy,150,2012-10-17 07:51:00
4:51 AM,45.0,37.0,74,29.87,10.0,SSE,6.9,-,N/A,,Mostly Cloudy,160,2012-10-17 08:51:00
5:51 AM,46.0,37.0,71,29.88,10.0,SSE,6.9,-,N/A,,Mostly Cloudy,150,2012-10-17 09:51:00
6:51 AM,48.0,37.0,66,29.88,10.0,SSE,9.2,-,N/A,,Mostly Cloudy,160,2012-10-17 10:51:00
7:51 AM,46.9,37.0,68,29.89,10.0,SSE,9.2,-,N/A,,Mostly Cloudy,150,2012-10-17 11:51:00
8:51 AM,48.9,37.0,64,29.90,10.0,SSE,11.5,-,N/A,,Mostly Cloudy,160,2012-10-17 12:51:00
9:51 AM,52.0,37.9,59,29.90,10.0,SSE,11.5,-,N/A,,Overcast,160,2012-10-17 13:51:00
10:51 AM,55.0,39.9,57,29.87,10.0,SSE,10.4,-,N/A,,Mostly Cloudy,150,2012-10-17 14:51:00
11:51 AM,60.1,41.0,49,29.86,10.0,SSE,8.1,16.1,N/A,,Mostly Cloudy,160,2012-10-17 15:51:00
12:51 PM,64.0,43.0,46,29.84,10.0,SSE,9.2,-,N/A,,Mostly Cloudy,150,2012-10-17 16:51:00
1:51 PM,64.9,44.1,47,29.82,10.0,SSE,5.8,-,N/A,,Mostly Cloudy,150,2012-10-17 17:51:00
2:51 PM,68.0,44.1,42,29.80,10.0,South,10.4,-,N/A,,Mostly Cloudy,170,2012-10-17 18:51:00
3:51 PM,68.0,46.0,45,29.79,10.0,SSE,9.2,-,N/A,,Mostly Cloudy,150,2012-10-17 19:51:00
4:51 PM,69.1,45.0,42,29.77,10.0,SSE,8.1,-,N/A,,Scattered Clouds,160,2012-10-17 20:51:00
5:51 PM,66.9,46.0,47,29.77,10.0,SE,6.9,-,N/A,,Scattered Clouds,130,2012-10-17 21:51:00
6:51 PM,61.0,45.0,56,29.77,10.0,SE,8.1,-,N/A,,Partly Cloudy,130,2012-10-17 22:51:00
7:51 PM,60.1,45.0,57,29.76,10.0,SE,9.2,-,N/A,,Partly Cloudy,130,2012-10-17 23:51:00
8:51 PM,60.1,45.0,57,29.75,10.0,SE,10.4,-,N/A,,Partly Cloudy,130,2012-10-18 00:51:00
9:51 PM,57.9,45.0,62,29.75,10.0,SE,9.2,-,N/A,,Mostly Cloudy,130,2012-10-18 01:51:00
10:51 PM,57.9,43.0,58,29.75,10.0,ESE,11.5,-,N/A,,Scattered Clouds,120,2012-10-18 02:51:00
11:51 PM,57.0,41.0,55,29.73,10.0,SE,10.4,-,N/A,,Partly Cloudy,130,2012-10-18 03:51:00